TimeEST,TemperatureF,Dew PointF,Humidity,Sea Level PressureIn,VisibilityMPH,Wind Direction,Wind SpeedMPH,Gust SpeedMPH,PrecipitationIn,Events,Conditions,WindDirDegrees,DateUTC
12:00 AM,70,60,62,30.09,,SSE,23.0,,,,,150,2013-05-25 14:00:00
12:00 AM,69.8,60.8,73,30.09,-9999.0,SSE,23.0,-,N/A,,Unknown,150,2013-05-25 14:00:00
12:30 AM,69.8,60.8,73,30.09,-9999.0,SSE,20.7,-,N/A,,Unknown,150,2013-05-25 14:30:00
1:00 AM,69.8,62.6,78,30.06,-9999.0,SSE,19.6,-,N/A,,Unknown,150,2013-05-25 15:00:00
1:30 AM,69.8,62.6,78,30.06,-9999.0,SSE,20.7,-,N/A,,Unknown,150,2013-05-25 15:30:00
2:00 AM,68.0,60.8,78,30.06,-9999.0,SSE,19.6,-,N/A,,Unknown,160,2013-05-25 16:00:00
2:30 AM,69.8,62.6,78,30.06,-9999.0,SSE,18.4,-,N/A,,Unknown,150,2013-05-25 16:30:00
3:00 AM,69,60,66,30.06,,SSE,20.7,,,,,160,2013-05-25 17:00:00
3:00 AM,68.0,60.8,78,30.06,-9999.0,SSE,20.7,-,N/A,,Unknown,160,2013-05-25 17:00:00
3:30 AM,68.0,60.8,78,30.04,-9999.0,SSE,24.2,-,N/A,,Unknown,160,2013-05-25 17:30:00
4:00 AM,69.8,60.8,73,30.04,-9999.0,SSE,25.3,-,N/A,,Unknown,150,2013-05-25 18:00:00
4:30 AM,69.8,60.8,73,30.04,-9999.0,SSE,27.6,-,N/A,,Unknown,150,2013-05-25 18:30:00
5:00 AM,68.0,60.8,78,30.06,-9999.0,SSE,27.6,-,N/A,,Unknown,150,2013-05-25 19:00:00
5:30 AM,68.0,60.8,78,30.06,-9999.0,SSE,25.3,-,N/A,,Unknown,150,2013-05-25 19:30:00
6:00 AM,68,60,68,30.08,,SSE,27.6,,,,,150,2013-05-25 20:00:00
6:00 AM,68.0,59.0,73,30.06,-9999.0,SSE,27.6,-,N/A,,Unknown,150,2013-05-25 20:00:00
6:30 AM,68.0,60.8,78,30.06,-9999.0,SSE,27.6,-,N/A,,Unknown,150,2013-05-25 20:30:00
7:00 AM,68.0,60.8,78,30.09,-9999.0,SE,29.9,-,N/A,,Unknown,140,2013-05-25 21:00:00
7:30 AM,69.8,62.6,78,30.09,-9999.0,SSE,29.9,-,N/A,,Unknown,150,2013-05-25 21:30:00
8:00 AM,68.0,60.8,78,30.09,-9999.0,SSE,32.2,-,N/A,,Unknown,150,2013-05-25 22:00:00
8:30 AM,68.0,62.6,83,30.12,-9999.0,SSE,32.2,-,N/A,,Unknown,150,2013-05-25 22:30:00
9:00 AM,70,64,75,30.13,,SSE,31.1,,,,,150,2013-05-25 23:00:00
9:00 AM,69.8,64.4,83,30.12,-9999.0,SSE,31.1,-,N/A,,Unknown,150,2013-05-25 23:00:00
9:30 AM,69.8,62.6,78,30.12,-9999.0,SSE,32.2,-,N/A,,Unknown,150,2013-05-25 23:30:00
10:00 AM,69.8,64.4,83,30.12,-9999.0,SSE,31.1,-,N/A,,Unknown,150,2013-05-26 00:00:00
10:30 AM,69.8,64.4,83,30.12,-9999.0,SE,35.7,-,N/A,,Unknown,140,2013-05-26 00:30:00
11:00 AM,71.6,64.4,78,30.12,-9999.0,SE,35.7,-,N/A,,Unknown,140,2013-05-26 01:00:00
11:30 AM,71.6,66.2,83,30.12,-9999.0,SE,34.5,-,N/A,,Unknown,140,2013-05-26 01:30:00
12:00 PM,71,64,73,30.11,,SSE,34.5,,,,,150,2013-05-26 02:00:00
12:00 PM,69.8,64.4,83,30.09,-9999.0,SSE,34.5,-,N/A,,Unknown,150,2013-05-26 02:00:00
12:30 PM,71.6,64.4,78,30.09,-9999.0,SE,34.5,-,N/A,,Unknown,140,2013-05-26 02:30:00
1:00 PM,71.6,64.4,78,30.06,-9999.0,SSE,33.4,-,N/A,,Unknown,150,2013-05-26 03:00:00
1:30 PM,69.8,64.4,83,30.06,-9999.0,SSE,33.4,-,N/A,,Unknown,150,2013-05-26 03:30:00
2:00 PM,69.8,64.4,83,30.06,-9999.0,SSE,32.2,-,N/A,,Unknown,150,2013-05-26 04:00:00
2:30 PM,69.8,64.4,83,30.06,-9999.0,SE,32.2,-,N/A,,Unknown,140,2013-05-26 04:30:00
3:00 PM,70,64,76,30.06,,SE,32.2,,,,,140,2013-05-26 05:00:00
3:00 PM,69.8,64.4,83,30.06,-9999.0,SE,32.2,-,N/A,,Unknown,140,2013-05-26 05:00:00
3:30 PM,69.8,62.6,78,30.06,-9999.0,SE,32.2,-,N/A,,Unknown,140,2013-05-26 05:30:00
4:00 PM,69.8,62.6,78,30.06,-9999.0,SE,31.1,-,N/A,,Unknown,140,2013-05-26 06:00:00
4:30 PM,69.8,62.6,78,30.06,-9999.0,SE,31.1,-,N/A,,Unknown,140,2013-05-26 06:30:00
5:00 PM,69.8,64.4,83,30.06,-9999.0,SE,27.6,-,N/A,,Unknown,140,2013-05-26 07:00:00
5:30 PM,69.8,62.6,78,30.06,-9999.0,SE,27.6,-,N/A,,Unknown,140,2013-05-26 07:30:00
6:00 PM,70,63,72,30.09,,SE,28.8,,,,,140,2013-05-26 08:00:00
6:00 PM,69.8,62.6,78,30.06,-9999.0,SE,28.8,-,N/A,,Unknown,140,2013-05-26 08:00:00
6:30 PM,69.8,60.8,73,30.09,-9999.0,SE,31.1,-,N/A,,Unknown,130,2013-05-26 08:30:00
7:00 PM,69.8,62.6,78,30.09,-9999.0,SE,26.5,-,N/A,,Unknown,130,2013-05-26 09:00:00
7:30 PM,69.8,62.6,78,30.12,-9999.0,SE,28.8,-,N/A,,Unknown,130,2013-05-26 09:30:00
8:00 PM,69.8,60.8,73,30.12,-9999.0,SE,28.8,-,N/A,,Unknown,130,2013-05-26 10:00:00
8:30 PM,71.6,60.8,69,30.12,-9999.0,SE,27.6,-,N/A,,Unknown,130,2013-05-26 10:30:00
9:00 PM,71,62,64,30.14,,SE,28.8,,,,,130,2013-05-26 11:00:00
9:00 PM,69.8,60.8,73,30.12,-9999.0,SE,28.8,-,N/A,,Unknown,130,2013-05-26 11:00:00
9:30 PM,69.8,62.6,78,30.12,-9999.0,SE,28.8,-,N/A,,Unknown,130,2013-05-26 11:30:00
10:00 PM,69.8,60.8,73,30.12,-9999.0,SE,27.6,-,N/A,,Unknown,140,2013-05-26 12:00:00
10:30 PM,69.8,60.8,73,30.12,-9999.0,SE,26.5,-,N/A,,Unknown,140,2013-05-26 12:30:00
11:00 PM,69.8,62.6,78,30.12,-9999.0,SE,26.5,-,N/A,,Unknown,140,2013-05-26 13:00:00
11:30 PM,69.8,62.6,78,30.12,-9999.0,SE,27.6,-,N/A,,Unknown,140,2013-05-26 13:30:00